Newport News, VA

2:00 PM EDT on May 22, 2017 (GMT -0400)
Newport News-Williamsburg International

Weather History for KPHF - July, 2013

Change the Weather History Date:

Friday, July 5, 2013

  Actual Average Record
Temperature  
Mean Temperature 84 °F -  
Max Temperature 93 °F 86 °F 100 °F (1999)
Min Temperature 77 °F 66 °F 57 °F (1979)
Cooling Degree Days 19    
Growing Degree Days 34 (Base 50)    
Moisture  
Dew Point 70 °F    
Average Humidity 64    
Maximum Humidity 79    
Minimum Humidity 47    
Precipitation  
Precipitation 0.00 in - - ()
Sea Level Pressure  
Sea Level Pressure 30.24 in    
Wind  
Wind Speed 9 mph (SW)    
Max Wind Speed 12 mph    
Max Gust Speed 20 mph    
Visibility 10 miles    
Events      
Averages and records for this station are not official NWS values.
T = Trace of Precipitation, MM = Missing Value Source: NWS Daily Summary

Daily Weather History Graph

Daily Weather History Graph

Search for Another Location

Airport or City:

Trip Planner

Search our weather history database for the weather conditions in past years. The results will help you decide how hot, cold, wet, or windy it might be!

Date:

Astronomy

Jul. 05, 2013 Rise Set
Actual Time 5:51 AM EDT 8:29 PM EDT
Civil Twilight 5:21 AM EDT 8:59 PM EDT
Nautical Twilight 4:43 AM EDT 9:37 PM EDT
Astronomical Twilight 4:00 AM EDT 10:20 PM EDT
Moon 3:48 AM EDT (7/5) 6:23 PM EDT (7/5)
Length of Visible Light 15h 38m
Length of Day
14h 37m
Waning Crescent, 6% of the Moon is Illuminated
Jul 5
Waning Crescent
Jul 8
New
Jul 15
First Quarter
Jul 22
Full
Jul 29
Last Quarter

Hourly Weather History & Observations

Time (EDT) Temp. Heat Index Dew Point Humidity Pressure Visibility Wind Dir Wind Speed Gust Speed Precip Events Conditions
12:54 AM 80.1 °F 83.2 °F 70.0 °F 71% 30.27 in 10.0 mi South 9.2 mph - N/A   Clear
1:54 AM 79.0 °F - 70.0 °F 74% 30.27 in 10.0 mi SSW 10.4 mph - N/A   Clear
2:54 AM 79.0 °F - 70.0 °F 74% 30.26 in 10.0 mi SW 10.4 mph - N/A   Clear
3:54 AM 78.1 °F - 70.0 °F 76% 30.26 in 10.0 mi SW 10.4 mph - N/A   Clear
4:54 AM 78.1 °F - 71.1 °F 79% 30.26 in 10.0 mi SW 8.1 mph - N/A   Clear
5:54 AM 77.0 °F - 70.0 °F 79% 30.26 in 10.0 mi SW 8.1 mph - N/A   Clear
6:38 AM 78.8 °F - 71.6 °F 78% 30.27 in 10.0 mi SW 5.8 mph - N/A   Partly Cloudy
6:54 AM 79.0 °F - 71.1 °F 77% 30.27 in 10.0 mi SW 6.9 mph - N/A   Scattered Clouds
7:12 AM 78.8 °F - 71.6 °F 78% 30.27 in 10.0 mi SW 10.4 mph - N/A   Mostly Cloudy
8:21 AM 80.6 °F 84.6 °F 71.6 °F 74% 30.28 in 10.0 mi SW 9.2 mph - N/A   Mostly Cloudy
8:33 AM 80.6 °F 84.6 °F 71.6 °F 74% 30.29 in 10.0 mi SSW 8.1 mph - N/A   Scattered Clouds
8:54 AM 82.0 °F 86.3 °F 71.1 °F 69% 30.29 in 10.0 mi SSW 9.2 mph - N/A   Partly Cloudy
9:54 AM 84.0 °F 89.0 °F 71.1 °F 65% 30.28 in 10.0 mi South 8.1 mph - N/A   Partly Cloudy
10:54 AM 86.0 °F 90.7 °F 70.0 °F 59% 30.29 in 10.0 mi SW 10.4 mph - N/A   Partly Cloudy
11:54 AM 88.0 °F 92.1 °F 69.1 °F 53% 30.28 in 10.0 mi SW 10.4 mph - N/A   Clear
12:54 PM 89.1 °F 94.1 °F 70.0 °F 53% 30.27 in 10.0 mi SW 9.2 mph - N/A   Scattered Clouds
1:54 PM 91.0 °F 95.6 °F 69.1 °F 48% 30.26 in 10.0 mi WSW 9.2 mph 16.1 mph N/A   Partly Cloudy
2:54 PM 91.0 °F 95.6 °F 69.1 °F 48% 30.24 in 10.0 mi SW 8.1 mph - N/A   Partly Cloudy
3:54 PM 91.9 °F 96.9 °F 69.1 °F 47% 30.21 in 10.0 mi South 9.2 mph - N/A   Partly Cloudy
4:54 PM 91.9 °F 97.4 °F 70.0 °F 48% 30.19 in 10.0 mi Variable 6.9 mph - N/A   Partly Cloudy
5:54 PM 91.9 °F 96.9 °F 69.1 °F 47% 30.17 in 10.0 mi SSW 4.6 mph - N/A   Clear
6:54 PM 91.0 °F 95.2 °F 68.0 °F 47% 30.17 in 10.0 mi SW 6.9 mph - N/A   Clear
7:54 PM 88.0 °F 92.9 °F 70.0 °F 55% 30.17 in 10.0 mi SW 9.2 mph - N/A   Mostly Cloudy
8:54 PM 88.0 °F 93.8 °F 71.1 °F 57% 30.18 in 10.0 mi SSW 10.4 mph - N/A   Overcast
9:54 PM 86.0 °F 91.5 °F 71.1 °F 61% 30.20 in 10.0 mi SSW 11.5 mph - N/A   Clear
10:54 PM 84.9 °F 90.1 °F 71.1 °F 63% 30.22 in 10.0 mi South 11.5 mph 19.6 mph N/A   Mostly Cloudy
11:54 PM 84.0 °F 89.0 °F 71.1 °F 65% 30.23 in 10.0 mi SSW 11.5 mph - N/A   Mostly Cloudy